Home   Weather   Guangzhou   Past weeks
Flag for China

Past Weather in Guangzhou, Guangdong, China — Yesterday and Last 2 Weeks

Now
66 °F

Passing clouds.


Feels Like: 66 °F
Forecast: 64 / 76 °F
Wind: 3 mph from Northeast

Location: Canton Airport

Current Time: Nov 20, 2018 at 8:26:01 pm

Latest Report: Nov 20, 2018 at 7:30 pm


Visibility: 4 mi

Pressure: 30.01 "Hg

Humidity: 83%

Dew Point: 61 °F

Location of GuangzhouLocation

Past Weather in Guangzhou — Graph

°F

Guangzhou Temperature Yesterday

Maximum temperature yesterday: 73 °F (at 1:00 pm)
Minimum temperature yesterday: 63 °F (at 3:30 am)
Average temperature yesterday: 67 °F

High & Low Weather Summary for the Past Weeks

 TemperatureHumidityPressure
High86 °F (Nov 6, 2:00 pm)94% (Nov 16, 7:00 pm)30.15 "Hg (Nov 16, 7:00 pm)
Low61 °F (Nov 20, 7:30 am)45% (Nov 9, 1:00 pm)29.89 "Hg (Nov 12, 2:00 pm)
Average73 °F72%30.02 "Hg
* Reported Nov 5 7:00 pm — Nov 20 7:00 pm, Guangzhou. Weather by CustomWeather, © 2018

Note: Actual official high and low records may vary slightly from our data, if they occured in-between our weather recording intervals... More about our weather records

Advertising

Guangzhou Weather History for the Previous 24 Hours

Scroll right to see more
 ConditionsComfort  
Time TempWeatherWind HumidityBarometerVisibility
7:00 pm
Tue, Nov 20
66 °FPassing clouds.3 mph83%30.01 "Hg4 mi
6:30 pm68 °FLight rain. Overcast.3 mph78%30.01 "Hg4 mi
6:00 pm68 °FLight rain. Overcast.3 mph78%30.01 "Hg4 mi
5:30 pm68 °FOvercast.6 mph78%29.98 "Hg4 mi
5:00 pm70 °FOvercast.3 mph73%29.98 "Hg4 mi
4:30 pm70 °FOvercast.3 mph73%29.98 "Hg4 mi
4:00 pm70 °FOvercast.6 mph73%29.98 "Hg4 mi
3:00 pm70 °FMore clouds than sun.1 mph73%29.98 "Hg4 mi
2:30 pm72 °FPartly sunny.1 mph69%29.98 "Hg4 mi
2:00 pm70 °FPartly sunny.1 mph73%30.01 "Hg4 mi
1:30 pm70 °FPartly sunny.3 mph73%30.01 "Hg5 mi
1:00 pm68 °FBroken clouds.3 mph73%30.04 "Hg5 mi
12:30 pm68 °FBroken clouds.1 mph73%30.07 "Hg5 mi
12:00 pm68 °FPartly sunny.3 mph73%30.07 "Hg5 mi
11:30 am66 °FOvercast.3 mph78%30.09 "Hg5 mi
11:00 am66 °FOvercast.3 mph78%30.09 "Hg5 mi
10:30 am64 °FMore clouds than sun.3 mph83%30.09 "Hg4 mi
10:00 am64 °FFog.3 mph78%30.12 "Hg3 mi
9:30 am64 °FFog.3 mph83%30.12 "Hg3 mi
9:00 am63 °FLight rain. Fog.3 mph83%30.12 "Hg3 mi
8:30 am61 °FLight rain. Fog.6 mph88%30.09 "Hg3 mi
8:00 am61 °FLight rain. Fog.3 mph88%30.09 "Hg3 mi
7:30 am61 °FFog.3 mph88%30.09 "Hg3 mi
7:00 am63 °FMore clouds than sun.6 mph83%30.09 "Hg4 mi
6:30 am63 °FPartly cloudy.3 mph77%30.07 "HgN/A
6:00 am63 °FPartly cloudy.6 mph77%30.07 "HgN/A
5:30 am63 °FPassing clouds.6 mph77%30.07 "HgN/A
5:00 am63 °FPassing clouds.3 mph77%30.07 "HgN/A
4:30 am64 °FPassing clouds.6 mph73%30.07 "HgN/A
4:00 am64 °FPassing clouds.6 mph73%30.07 "HgN/A
3:30 am64 °FPassing clouds.6 mph73%30.07 "HgN/A
3:00 am64 °FPassing clouds.3 mph73%30.07 "HgN/A
2:30 am64 °FPassing clouds.3 mph73%30.07 "HgN/A
2:00 am64 °FPassing clouds.3 mph73%30.07 "HgN/A
1:30 am64 °FPassing clouds.3 mph73%30.09 "HgN/A
1:00 am64 °FPassing clouds.3 mph73%30.09 "HgN/A
12:30 am64 °FPassing clouds.1 mph78%30.09 "HgN/A
12:00 am64 °FPassing clouds.3 mph73%30.09 "HgN/A
11:30 pm
Mon, Nov 19
64 °FPassing clouds.3 mph78%30.09 "HgN/A
11:00 pm64 °FClear.1 mph78%30.09 "Hg10 mi
10:30 pm64 °FPassing clouds.3 mph78%30.09 "HgN/A
10:00 pm64 °FPassing clouds.3 mph78%30.09 "HgN/A
9:30 pm64 °FClear.1 mph78%30.09 "Hg10 mi
9:00 pm64 °FClear.6 mph73%30.09 "Hg10 mi
8:30 pm66 °FPassing clouds.6 mph68%30.09 "HgN/A
8:00 pm66 °FPassing clouds.6 mph68%30.09 "HgN/A
Weather by CustomWeather, © 2018

See weather overview